APSTAR-9

Last updated on Sun Dec 14 2025 00:02:51 GMT+0000 (Coordinated Universal Time)

1 40982U 15059A 25347.28516956 -.00000251 00000+0 00000+0 0 9993 2 40982 0.0168 337.9975 0003771 255.2954 93.6121 1.00273052 37252
UTC large
Height (km)
Speed (km/s)
/
Latitude / Longitude
Inclination (degrees)
Orbital Period (minutes)
Azimuth
Elevation
Range (km)
Doppler Factor

Next 0 passes for location: London (51.5072 / 0.1276)

Sorry there are no passes over London.